EN

Hourly Weather Kufstein

Today, 28 November, Saturday

Time Temperature Precipitation Wind Pressure Humidity
00:00 +4°C° 0 mm 1 mps 717 mmHg 60%
01:00 +4°C° 0 mm 1 mps 717 mmHg 57%
02:00 +4°C° 0 mm 1 mps 716 mmHg 57%
03:00 +4°C° 0 mm 1 mps 716 mmHg 57%
04:00 +4°C° 0 mm 1 mps 716 mmHg 57%
05:00 +4°C° 0 mm 1 mps 716 mmHg 56%
06:00 +4°C° 0 mm 1 mps 716 mmHg 56%
07:00 +4°C° 0 mm 1 mps 716 mmHg 55%
08:00 +4°C° 0 mm 0 mps 716 mmHg 52%
09:00 +6°C° 0 mm 0 mps 716 mmHg 49%
10:00 +7°C° 0 mm 0 mps 716 mmHg 46%
11:00 +8°C° 0 mm 0 mps 716 mmHg 47%
12:00 +10°C° 0 mm 1 mps 715 mmHg 47%
13:00 +10°C° 0 mm 1 mps 715 mmHg 47%
14:00 +9°C° 0 mm 1 mps 715 mmHg 55%
15:00 +7°C° 0 mm 1 mps 714 mmHg 64%
16:00 +6°C° 0 mm 1 mps 714 mmHg 72%
17:00 +5°C° 0 mm 1 mps 714 mmHg 74%
18:00 +3°C° 0 mm 0 mps 714 mmHg 76%
19:00 +3°C° 0 mm 0 mps 715 mmHg 78%
20:00 +2°C° 0 mm 0 mps 715 mmHg 77%
21:00 +2°C° 0 mm 0 mps 715 mmHg 77%
22:00 +2°C° 0 mm 0 mps 715 mmHg 76%
23:00 +2°C° 0 mm 0 mps 715 mmHg 76%

Tomorrow, 29 November, Sunday

Time Temperature Precipitation Wind Pressure Humidity
00:00 +2°C° 0 mm 0 mps 715 mmHg 77%
01:00 +2°C° 0 mm 0 mps 715 mmHg 77%
02:00 +1°C° 0 mm 0 mps 715 mmHg 77%
03:00 +1°C° 0 mm 0 mps 715 mmHg 78%
04:00 +1°C° 0 mm 0 mps 715 mmHg 79%
05:00 +1°C° 0 mm 0 mps 715 mmHg 80%
06:00 +1°C° 0 mm 0 mps 715 mmHg 81%
07:00 0°C° 0 mm 0 mps 715 mmHg 81%
08:00 +2°C° 0 mm 0 mps 716 mmHg 77%
09:00 +3°C° 0 mm 0 mps 716 mmHg 73%
10:00 +5°C° 0 mm 1 mps 716 mmHg 69%
11:00 +5°C° 0 mm 1 mps 716 mmHg 67%
12:00 +6°C° 0 mm 1 mps 716 mmHg 65%
13:00 +6°C° 0 mm 1 mps 716 mmHg 63%
14:00 +5°C° 0 mm 1 mps 716 mmHg 70%
15:00 +4°C° 0 mm 1 mps 716 mmHg 77%
16:00 +3°C° 0 mm 1 mps 716 mmHg 84%
17:00 +1°C° 0 mm 0 mps 716 mmHg 86%
18:00 0°C° 0 mm 0 mps 716 mmHg 88%
19:00 0°C° 0 mm 0 mps 717 mmHg 90%
20:00 0°C° 0 mm 0 mps 717 mmHg 89%
21:00 0°C° 0 mm 0 mps 717 mmHg 88%
22:00 0°C° 0 mm 0 mps 718 mmHg 87%
23:00 -1°C° 0 mm 0 mps 718 mmHg 86%

Day after tomorrow, 30 November, Monday

Time Temperature Precipitation Wind Pressure Humidity
00:00 -1°C° 0 mm 0 mps 718 mmHg 85%
01:00 -1°C° 0 mm 0 mps 718 mmHg 85%
02:00 -1°C° 0 mm 0 mps 718 mmHg 84%
03:00 -1°C° 0 mm 0 mps 718 mmHg 82%
04:00 -1°C° 0 mm 0 mps 718 mmHg 81%
05:00 -1°C° 0 mm 0 mps 718 mmHg 80%
06:00 -1°C° 0 mm 0 mps 718 mmHg 78%
07:00 -1°C° 0 mm 0 mps 719 mmHg 77%
08:00 0°C° 0 mm 0 mps 719 mmHg 70%
09:00 +2°C° 0 mm 0 mps 719 mmHg 64%
10:00 +3°C° 0 mm 0 mps 719 mmHg 57%
11:00 +4°C° 0 mm 0 mps 719 mmHg 54%
12:00 +5°C° 0 mm 0 mps 719 mmHg 51%
13:00 +7°C° 0 mm 1 mps 719 mmHg 48%
14:00 +4°C° 0 mm 0 mps 719 mmHg 56%
15:00 +3°C° 0 mm 0 mps 719 mmHg 65%
16:00 +1°C° 0 mm 0 mps 718 mmHg 73%
17:00 +1°C° 0 mm 0 mps 719 mmHg 74%
18:00 0°C° 0 mm 0 mps 719 mmHg 75%
19:00 +1°C° 0 mm 1 mps 719 mmHg 76%
20:00 +1°C° 0 mm 1 mps 719 mmHg 74%
21:00 0°C° 0 mm 0 mps 719 mmHg 71%
22:00 0°C° 0 mm 0 mps 719 mmHg 68%
23:00 +1°C° 0 mm 1 mps 719 mmHg 65%

1 December, Tuesday

Time Temperature Precipitation Wind Pressure Humidity
00:00 +1°C° 0 mm 1 mps 718 mmHg 62%
01:00 +1°C° 0 mm 1 mps 718 mmHg 59%
02:00 +1°C° 0 mm 1 mps 718 mmHg 56%
03:00 +1°C° 0 mm 1 mps 717 mmHg 54%
04:00 +1°C° 0 mm 1 mps 717 mmHg 51%
05:00 +1°C° 0 mm 1 mps 717 mmHg 49%
06:00 +1°C° 0 mm 1 mps 717 mmHg 47%
07:00 +1°C° 0 mm 1 mps 716 mmHg 45%
08:00 +2°C° 0 mm 1 mps 716 mmHg 42%
09:00 +2°C° 0 mm 0 mps 716 mmHg 39%
10:00 +4°C° 0 mm 0 mps 716 mmHg 36%
11:00 +4°C° 0 mm 0 mps 715 mmHg 37%
12:00 +5°C° 0 mm 0 mps 715 mmHg 37%
13:00 +5°C° 0 mm 0 mps 715 mmHg 38%
14:00 +4°C° 0 mm 0 mps 714 mmHg 44%
15:00 +3°C° 0 mm 0 mps 714 mmHg 50%
16:00 +3°C° 0 mm 0 mps 714 mmHg 56%
17:00 +2°C° 0 mm 0 mps 714 mmHg 57%
18:00 +1°C° 0 mm 0 mps 714 mmHg 58%
19:00 +1°C° 0 mm 0 mps 715 mmHg 59%
20:00 +1°C° 0 mm 0 mps 715 mmHg 61%
21:00 +1°C° 0 mm 0 mps 715 mmHg 62%
22:00 +1°C° 0 mm 0 mps 715 mmHg 64%
23:00 +1°C° 0 mm 0 mps 715 mmHg 67%

2 December, Wednesday

Time Temperature Precipitation Wind Pressure Humidity
00:00 +1°C° 0 mm 0 mps 715 mmHg 69%
01:00 0°C° 0 mm 0 mps 715 mmHg 72%
02:00 0°C° 0 mm 0 mps 715 mmHg 73%
03:00 0°C° 0 mm 0 mps 715 mmHg 74%
04:00 0°C° 0 mm 0 mps 715 mmHg 75%
05:00 0°C° 0 mm 0 mps 715 mmHg 77%
06:00 0°C° 0 mm 0 mps 715 mmHg 78%
07:00 0°C° 0 mm 0 mps 716 mmHg 79%
08:00 +1°C° 0 mm 0 mps 716 mmHg 75%
09:00 +1°C° 0 mm 0 mps 716 mmHg 72%
10:00 +2°C° 0 mm 0 mps 716 mmHg 68%
11:00 +3°C° 0 mm 0 mps 716 mmHg 66%
12:00 +4°C° 0 mm 0 mps 715 mmHg 63%
13:00 +5°C° 0 mm 1 mps 715 mmHg 61%
14:00 +4°C° 0 mm 1 mps 715 mmHg 67%
15:00 +3°C° 0 mm 1 mps 715 mmHg 73%
16:00 +2°C° 0 mm 1 mps 714 mmHg 79%
17:00 0°C° 0 mm 0 mps 715 mmHg 81%
18:00 0°C° 0 mm 0 mps 715 mmHg 83%
19:00 -1°C° 0 mm 0 mps 715 mmHg 85%
20:00 -1°C° 0 mm 0 mps 715 mmHg 84%
21:00 -1°C° 0 mm 0 mps 715 mmHg 83%
22:00 -1°C° 0 mm 0 mps 715 mmHg 82%
23:00 -1°C° 0 mm 0 mps 715 mmHg 81%

3 December, Thursday

Time Temperature Precipitation Wind Pressure Humidity
00:00 -1°C° 0 mm 0 mps 715 mmHg 80%
01:00 0°C° 0 mm 0 mps 714 mmHg 78%
02:00 -1°C° 0 mm 0 mps 714 mmHg 77%
03:00 -1°C° 0 mm 0 mps 714 mmHg 77%
04:00 -1°C° 0 mm 0 mps 713 mmHg 76%
05:00 -1°C° 0 mm 0 mps 713 mmHg 74%
06:00 0°C° 0 mm 0 mps 713 mmHg 73%
07:00 +1°C° 0 mm 1 mps 713 mmHg 71%
08:00 +1°C° 0 mm 0 mps 713 mmHg 67%
09:00 +2°C° 0 mm 0 mps 712 mmHg 62%
10:00 +3°C° 0 mm 0 mps 712 mmHg 57%
11:00 +5°C° 0 mm 1 mps 712 mmHg 56%
12:00 +6°C° 0 mm 1 mps 711 mmHg 54%
13:00 +7°C° 0 mm 1 mps 710 mmHg 52%
14:00 +6°C° 0 mm 1 mps 710 mmHg 59%
15:00 +5°C° 0 mm 1 mps 709 mmHg 65%
16:00 +3°C° 0 mm 1 mps 709 mmHg 72%
17:00 +3°C° 0 mm 1 mps 709 mmHg 73%
18:00 +3°C° 0 mm 1 mps 709 mmHg 75%
19:00 +2°C° 0 mm 1 mps 708 mmHg 77%
20:00 +3°C° 0 mm 1 mps 708 mmHg 77%
21:00 +3°C° 0 mm 1 mps 708 mmHg 77%
22:00 +3°C° 0 mm 1 mps 708 mmHg 77%
23:00 +3°C° 0 mm 1 mps 707 mmHg 77%
Show more

We Need Your Consent

Meteoprog and our Service Providers may store and access personal data such as cookies, device identifiers or other similar technologies on your device and process such data to personalise content and ads, as well as provide social media features and to analyse the traffic.

  • Store and/or access information on your device

    Cookies, device identifiers or other information can be stored or accessed on your device for the purposes indicated above.

  • Personalised ads and content, ad and content measurement, audience insights, and products development

    Ads and content can be personalised based on a profile. More data can be added to better personalise ads and content. Ad and content performance can be measured. Insights about the audience who saw the ads and content can be derived. Such data can be used to develop or improve user’s experience, systems and software.

By clicking ‘I Agree’ you will allow the use of indicated cookies, device identifiers, web beacons or other similar technologies. Your settings can be changed in the browser on your device.

For certain purposes, legitimate interests may be relied on, rather than consent. You can read more about this in our Privacy and Cookie Policy.